Seattle, Washington
Traffic Map
Current Weather Conditions
Seattle, Washington
Clear
Clear
16°
Feels Like: 16°
Wind Chill: 16° Ceiling: Unl
Heat Index: 16° Visibility: 10mi
Dew Point: 12° Wind: 5mph
Humidity: 78% Direction: 140° (SE)
Pressure: 29.9in Gusts: 0mph
Raw Report DataKBFI 230753Z 14004KT 10SM CLR 16/12 A2990 RMK AO2 SLP126 T01610122 402330161
Traffic Incident Summary
Active as of:
Severity:
Category:
InformationThere was an issue retrieving the traffic information for this location. Please try a different location or try again shortly.
Advertisements
Track Severe Weather on mobile